| time (UTC) | temp F | wind direction | speed MPH | gust MPH | rain 1hr in | rain 24hr in | rain mn in | humidity % | barometer mb |
| 20260509032132 | 49 | 225 | 2.0 | 2.0 | 0.00 | 0.00 | 0.00 | 54 | 1005.1 |
| 20260509031632 | 49 | 203 | 0.0 | 2.0 | 0.00 | 0.00 | 0.00 | 53 | 1005.1 |
| 20260509031133 | 49 | 180 | 0.0 | 2.0 | 0.00 | 0.00 | 0.00 | 53 | 1005.1 |
| 20260509030632 | 49 | 270 | 0.0 | 2.0 | 0.00 | 0.00 | 0.00 | 51 | 1005.1 |
| 20260509030133 | 49 | 203 | 0.0 | 2.0 | 0.00 | 0.00 | 0.00 | 50 | 1005.4 |
| 20260509025633 | 50 | 203 | 1.0 | 2.0 | 0.00 | 0.00 | 0.00 | 50 | 1005.4 |
| 20260509025132 | 50 | 225 | 0.0 | 2.0 | 0.00 | 0.00 | 0.00 | 49 | 1005.4 |
| 20260509024632 | 50 | 203 | 1.0 | 2.0 | 0.00 | 0.00 | 0.00 | 49 | 1005.4 |
| 20260509024132 | 50 | 203 | 1.0 | 2.0 | 0.00 | 0.00 | 0.00 | 48 | 1005.4 |
| 20260509023633 | 50 | 203 | 2.0 | 2.0 | 0.00 | 0.00 | 0.00 | 47 | 1005.4 |
| 20260509023134 | 50 | 203 | 0.0 | 2.0 | 0.00 | 0.00 | 0.00 | 46 | 1005.4 |
| 20260509022633 | 50 | 203 | 1.0 | 2.0 | 0.00 | 0.00 | 0.00 | 48 | 1005.4 |
| 20260509022133 | 50 | 203 | 0.0 | 2.0 | 0.00 | 0.00 | 0.00 | 44 | 1005.4 |
| 20260509021635 | 50 | 225 | 0.0 | 2.0 | 0.00 | 0.00 | 0.00 | 45 | 1005.4 |
| 20260509021132 | 50 | 225 | 0.0 | 2.0 | 0.00 | 0.00 | 0.00 | 43 | 1005.4 |
| 20260509020634 | 51 | 203 | 0.0 | 2.0 | 0.00 | 0.00 | 0.00 | 43 | 1005.4 |
| 20260509020132 | 51 | 225 | 0.0 | 2.0 | 0.00 | 0.00 | 0.00 | 43 | 1005.4 |
| 20260509015633 | 51 | 203 | 0.0 | 0.0 | 0.00 | 0.00 | 0.00 | 43 | 1005.4 |
| 20260509015135 | 51 | 225 | 0.0 | 0.0 | 0.00 | 0.00 | 0.00 | 42 | 1005.4 |
| 20260509014632 | 51 | 203 | 0.0 | 0.0 | 0.00 | 0.00 | 0.00 | 41 | 1005.4 |
| 20260509014133 | 52 | 180 | 0.0 | 2.0 | 0.00 | 0.00 | 0.00 | 41 | 1005.4 |
| 20260509013632 | 52 | 203 | 0.0 | 2.0 | 0.00 | 0.00 | 0.00 | 39 | 1005.1 |
| 20260509013132 | 52 | 248 | 0.0 | 2.0 | 0.00 | 0.00 | 0.00 | 41 | 1005.1 |
| 20260509012632 | 53 | 225 | 0.0 | 2.0 | 0.00 | 0.00 | 0.00 | 42 | 1005.1 |
| 20260509012132 | 53 | 225 | 0.0 | 2.0 | 0.00 | 0.00 | 0.00 | 42 | 1005.1 |
| 20260509011633 | 53 | 225 | 0.0 | 2.0 | 0.00 | 0.00 | 0.00 | 40 | 1005.1 |
| 20260509011134 | 54 | 225 | 0.0 | 2.0 | 0.00 | 0.00 | 0.00 | 39 | 1005.1 |
| 20260509010633 | 54 | 225 | 0.0 | 2.0 | 0.00 | 0.00 | 0.00 | 40 | 1005.1 |
| 20260509010133 | 55 | 203 | 0.0 | 5.0 | 0.00 | 0.00 | 0.00 | 37 | 1005.1 |
| 20260509005633 | 55 | 203 | 0.0 | 5.0 | 0.00 | 0.00 | 0.00 | 37 | 1005.1 |
| 20260509005133 | 56 | 225 | 0.0 | 5.0 | 0.00 | 0.00 | 0.00 | 35 | 1005.1 |
| 20260509004632 | 57 | 225 | 0.0 | 5.0 | 0.00 | 0.00 | 0.00 | 33 | 1005.1 |
| 20260509004133 | 57 | 270 | 0.0 | 5.0 | 0.00 | 0.00 | 0.00 | 33 | 1005.1 |
| 20260509003632 | 57 | 293 | 0.0 | 5.0 | 0.00 | 0.00 | 0.00 | 35 | 1005.1 |
| 20260509003133 | 57 | 248 | 0.0 | 5.0 | 0.00 | 0.00 | 0.00 | 35 | 1005.1 |
| 20260509002634 | 58 | 45 | 0.0 | 5.0 | 0.00 | 0.00 | 0.00 | 37 | 1005.1 |
| 20260509002133 | 59 | 270 | 0.0 | 5.0 | 0.00 | 0.00 | 0.00 | 33 | 1005.1 |
| 20260509001632 | 59 | 248 | 0.0 | 5.0 | 0.00 | 0.00 | 0.00 | 32 | 1005.1 |
| 20260509001132 | 60 | 270 | 0.0 | 5.0 | 0.00 | 0.00 | 0.00 | 32 | 1005.1 |
| 20260509000632 | 60 | 315 | 2.0 | 5.0 | 0.00 | 0.00 | 0.00 | 30 | 1005.1 |
| 20260509000132 | 60 | 203 | 2.0 | 6.0 | 0.00 | 0.00 | 0.00 | 29 | 1004.7 |
| 20260508235633 | 60 | 248 | 0.0 | 6.0 | 0.00 | 0.00 | 0.00 | 30 | 1004.7 |
| 20260508234645 | 61 | 270 | 2.0 | 6.0 | 0.00 | 0.00 | 0.00 | 30 | 1004.7 |
| 20260508234132 | 62 | 180 | 3.0 | 6.0 | 0.00 | 0.00 | 0.00 | 31 | 1004.7 |
| 20260508233133 | 63 | 270 | 0.0 | 6.0 | 0.00 | 0.00 | 0.00 | 28 | 1004.7 |
| 20260508232134 | 65 | 45 | 1.0 | 6.0 | 0.00 | 0.00 | 0.00 | 26 | 1004.7 |
| 20260508231635 | 66 | 270 | 2.0 | 6.0 | 0.00 | 0.00 | 0.00 | 26 | 1004.7 |
| 20260508231133 | 66 | 270 | 1.0 | 6.0 | 0.00 | 0.00 | 0.00 | 27 | 1004.7 |
| 20260508230632 | 66 | 90 | 2.0 | 6.0 | 0.00 | 0.00 | 0.00 | 25 | 1004.7 |
| 20260508230132 | 66 | 270 | 2.0 | 6.0 | 0.00 | 0.00 | 0.00 | 28 | 1004.7 |
| 20260508225634 | 67 | 315 | 3.0 | 6.0 | 0.00 | 0.00 | 0.00 | 27 | 1004.7 |
| 20260508225133 | 68 | 270 | 3.0 | 7.0 | 0.00 | 0.00 | 0.00 | 27 | 1004.7 |
| 20260508224632 | 68 | 225 | 2.0 | 7.0 | 0.00 | 0.00 | 0.00 | 27 | 1004.7 |
| 20260508224133 | 67 | 90 | 2.0 | 8.0 | 0.00 | 0.00 | 0.00 | 27 | 1004.7 |
| 20260508223633 | 67 | 203 | 4.0 | 8.0 | 0.00 | 0.00 | 0.00 | 27 | 1004.7 |
| 20260508223133 | 68 | 315 | 2.0 | 8.0 | 0.00 | 0.00 | 0.00 | 29 | 1004.7 |
| 20260508222632 | 68 | 293 | 2.0 | 8.0 | 0.00 | 0.00 | 0.00 | 27 | 1004.7 |
| 20260508222134 | 68 | 315 | 2.0 | 8.0 | 0.00 | 0.00 | 0.00 | 29 | 1004.7 |
| 20260508221632 | 67 | 270 | 2.0 | 9.0 | 0.00 | 0.00 | 0.00 | 31 | 1004.7 |
| 20260508221133 | 68 | 293 | 2.0 | 9.0 | 0.00 | 0.00 | 0.00 | 32 | 1004.7 |
| 20260508220633 | 68 | 248 | 3.0 | 9.0 | 0.00 | 0.00 | 0.00 | 28 | 1004.7 |
| 20260508220132 | 66 | 293 | 4.0 | 9.0 | 0.00 | 0.00 | 0.00 | 29 | 1004.7 |
| 20260508215633 | 66 | 248 | 5.0 | 9.0 | 0.00 | 0.00 | 0.00 | 28 | 1004.7 |
| 20260508215133 | 67 | 203 | 7.0 | 9.0 | 0.00 | 0.00 | 0.00 | 29 | 1004.7 |
| 20260508214633 | 67 | 338 | 3.0 | 9.0 | 0.00 | 0.00 | 0.00 | 30 | 1004.7 |
| 20260508214134 | 67 | 248 | 4.0 | 10.0 | 0.00 | 0.00 | 0.00 | 28 | 1004.7 |
| 20260508213635 | 68 | 203 | 2.0 | 10.0 | 0.00 | 0.00 | 0.00 | 28 | 1004.7 |
| 20260508213132 | 67 | 270 | 4.0 | 10.0 | 0.00 | 0.00 | 0.00 | 30 | 1004.7 |
| 20260508212634 | 67 | 225 | 6.0 | 10.0 | 0.00 | 0.00 | 0.00 | 27 | 1004.7 |
| 20260508212132 | 67 | 180 | 2.0 | 11.0 | 0.00 | 0.00 | 0.00 | 33 | 1005.1 |
| 20260508211632 | 66 | 203 | 7.0 | 11.0 | 0.00 | 0.00 | 0.00 | 27 | 1005.1 |
| 20260508211135 | 68 | 270 | 2.0 | 11.0 | 0.00 | 0.00 | 0.00 | 30 | 1005.1 |
| 20260508210632 | 66 | 315 | 4.0 | 11.0 | 0.00 | 0.00 | 0.00 | 31 | 1005.1 |
| 20260508210132 | 69 | 315 | 2.0 | 11.0 | 0.00 | 0.00 | 0.00 | 27 | 1005.1 |
| 20260508205633 | 68 | 45 | 5.0 | 11.0 | 0.00 | 0.00 | 0.00 | 28 | 1005.1 |
| 20260508205133 | 67 | 23 | 2.0 | 11.0 | 0.00 | 0.00 | 0.00 | 31 | 1005.1 |
| 20260508204632 | 66 | 270 | 2.0 | 11.0 | 0.00 | 0.00 | 0.00 | 28 | 1005.4 |
| 20260508204132 | 67 | 203 | 9.0 | 11.0 | 0.00 | 0.00 | 0.00 | 28 | 1005.4 |
| 20260508203632 | 66 | 248 | 4.0 | 11.0 | 0.00 | 0.00 | 0.00 | 31 | 1005.4 |
| 20260508203132 | 67 | 203 | 6.0 | 11.0 | 0.00 | 0.00 | 0.00 | 31 | 1005.4 |
| 20260508202632 | 66 | 203 | 6.0 | 11.0 | 0.00 | 0.00 | 0.00 | 29 | 1005.4 |
| 20260508202134 | 66 | 270 | 2.0 | 11.0 | 0.00 | 0.00 | 0.00 | 31 | 1005.8 |
| 20260508201636 | 66 | 248 | 4.0 | 11.0 | 0.00 | 0.00 | 0.00 | 30 | 1005.8 |
| 20260508201133 | 66 | 248 | 4.0 | 11.0 | 0.00 | 0.00 | 0.00 | 29 | 1005.8 |
| 20260508200634 | 65 | 203 | 4.0 | 11.0 | 0.00 | 0.00 | 0.00 | 30 | 1005.8 |
| 20260508200132 | 65 | 225 | 7.0 | 11.0 | 0.00 | 0.00 | 0.00 | 31 | 1005.8 |
| 20260508195632 | 64 | 180 | 4.0 | 11.0 | 0.00 | 0.00 | 0.00 | 31 | 1005.8 |
| 20260508195133 | 66 | 270 | 2.0 | 11.0 | 0.00 | 0.00 | 0.00 | 31 | 1005.8 |
| 20260508194634 | 65 | 293 | 2.0 | 11.0 | 0.00 | 0.00 | 0.00 | 33 | 1006.1 |
| 20260508194132 | 65 | 225 | 7.0 | 11.0 | 0.00 | 0.00 | 0.00 | 31 | 1006.1 |
| 20260508193632 | 64 | 293 | 5.0 | 11.0 | 0.00 | 0.00 | 0.00 | 30 | 1006.1 |
| 20260508193132 | 64 | 270 | 7.0 | 11.0 | 0.00 | 0.00 | 0.00 | 31 | 1006.1 |
| 20260508192633 | 65 | 225 | 5.0 | 10.0 | 0.00 | 0.00 | 0.00 | 31 | 1006.1 |
| 20260508192135 | 64 | 270 | 4.0 | 10.0 | 0.00 | 0.00 | 0.00 | 32 | 1006.4 |
| 20260508191634 | 64 | 203 | 7.0 | 10.0 | 0.00 | 0.00 | 0.00 | 32 | 1006.4 |
| 20260508191135 | 65 | 248 | 5.0 | 10.0 | 0.00 | 0.00 | 0.00 | 35 | 1006.4 |
| 20260508190636 | 64 | 23 | 4.0 | 10.0 | 0.00 | 0.00 | 0.00 | 33 | 1006.4 |
| 20260508190132 | 64 | 248 | 4.0 | 10.0 | 0.00 | 0.00 | 0.00 | 35 | 1006.8 |
| 20260508185632 | 63 | 203 | 3.0 | 10.0 | 0.00 | 0.00 | 0.00 | 33 | 1006.8 |
| 20260508185132 | 64 | 270 | 6.0 | 10.0 | 0.00 | 0.00 | 0.00 | 35 | 1006.8 |
| 20260508184147 | 62 | 270 | 4.0 | 10.0 | 0.00 | 0.00 | 0.00 | 39 | 1006.8 |
| 20260508183633 | 64 | 113 | 2.0 | 10.0 | 0.00 | 0.00 | 0.00 | 40 | 1007.1 |
| 20260508183132 | 63 | 248 | 4.0 | 10.0 | 0.00 | 0.00 | 0.00 | 40 | 1007.1 |
| 20260508182632 | 63 | 68 | 5.0 | 10.0 | 0.00 | 0.00 | 0.00 | 41 | 1007.1 |
| 20260508182134 | 62 | 248 | 5.0 | 10.0 | 0.00 | 0.00 | 0.00 | 40 | 1007.1 |
| 20260508181633 | 62 | 225 | 0.0 | 10.0 | 0.00 | 0.00 | 0.00 | 39 | 1007.1 |
| 20260508181133 | 62 | 203 | 4.0 | 10.0 | 0.00 | 0.00 | 0.00 | 40 | 1007.5 |
| 20260508180632 | 63 | 270 | 7.0 | 10.0 | 0.00 | 0.00 | 0.00 | 39 | 1007.5 |
| 20260508180133 | 62 | 225 | 3.0 | 10.0 | 0.00 | 0.00 | 0.00 | 38 | 1007.8 |
| 20260508175633 | 63 | 270 | 5.0 | 10.0 | 0.00 | 0.00 | 0.00 | 36 | 1007.8 |
| 20260508175132 | 64 | 23 | 4.0 | 10.0 | 0.00 | 0.00 | 0.00 | 39 | 1007.8 |
| 20260508174633 | 63 | 135 | 7.0 | 10.0 | 0.00 | 0.00 | 0.00 | 39 | 1007.8 |
| 20260508174132 | 64 | 248 | 4.0 | 10.0 | 0.00 | 0.00 | 0.00 | 38 | 1007.8 |
| 20260508173634 | 64 | 293 | 3.0 | 10.0 | 0.00 | 0.00 | 0.00 | 39 | 1007.8 |
| 20260508173132 | 65 | 180 | 4.0 | 10.0 | 0.00 | 0.00 | 0.00 | 36 | 1007.8 |
| 20260508172633 | 62 | 180 | 3.0 | 10.0 | 0.00 | 0.00 | 0.00 | 36 | 1007.8 |
| 20260508172136 | 64 | 293 | 4.0 | 10.0 | 0.00 | 0.00 | 0.00 | 35 | 1007.8 |
| 20260508171634 | 62 | 0 | 4.0 | 10.0 | 0.00 | 0.00 | 0.00 | 36 | 1007.8 |
| 20260508171133 | 62 | 203 | 2.0 | 9.0 | 0.00 | 0.00 | 0.00 | 35 | 1008.1 |
| 20260508170633 | 63 | 248 | 2.0 | 9.0 | 0.00 | 0.00 | 0.00 | 36 | 1008.1 |
| 20260508170132 | 63 | 203 | 2.0 | 9.0 | 0.00 | 0.00 | 0.00 | 34 | 1008.5 |
| 20260508165633 | 63 | 293 | 5.0 | 9.0 | 0.00 | 0.00 | 0.00 | 35 | 1008.5 |
| 20260508165132 | 62 | 248 | 7.0 | 7.0 | 0.00 | 0.00 | 0.00 | 36 | 1008.5 |
| 20260508164634 | 63 | 270 | 3.0 | 7.0 | 0.00 | 0.00 | 0.00 | 33 | 1008.5 |
| 20260508164132 | 63 | 225 | 6.0 | 7.0 | 0.00 | 0.00 | 0.00 | 38 | 1008.5 |
| 20260508163633 | 63 | 113 | 2.0 | 6.0 | 0.00 | 0.00 | 0.00 | 38 | 1008.8 |
| 20260508163137 | 61 | 180 | 2.0 | 6.0 | 0.00 | 0.00 | 0.00 | 39 | 1008.8 |
| 20260508162633 | 62 | 113 | 2.0 | 6.0 | 0.00 | 0.00 | 0.00 | 36 | 1008.8 |
| 20260508162133 | 62 | 225 | 1.0 | 6.0 | 0.00 | 0.00 | 0.00 | 44 | 1008.8 |
| 20260508161635 | 62 | 45 | 0.0 | 6.0 | 0.00 | 0.00 | 0.00 | 44 | 1008.8 |
| 20260508161133 | 62 | 225 | 3.0 | 6.0 | 0.00 | 0.00 | 0.00 | 43 | 1008.8 |
| 20260508160634 | 62 | 270 | 3.0 | 6.0 | 0.00 | 0.00 | 0.00 | 43 | 1008.8 |
| 20260508160132 | 62 | 68 | 2.0 | 6.0 | 0.00 | 0.00 | 0.00 | 40 | 1008.8 |
| 20260508155632 | 63 | 293 | 5.0 | 6.0 | 0.00 | 0.00 | 0.00 | 41 | 1008.8 |
| 20260508155133 | 62 | 293 | 2.0 | 6.0 | 0.00 | 0.00 | 0.00 | 40 | 1008.8 |
| 20260508154633 | 61 | 45 | 3.0 | 6.0 | 0.00 | 0.00 | 0.00 | 40 | 1008.8 |
| 20260508154133 | 61 | 248 | 0.0 | 6.0 | 0.00 | 0.00 | 0.00 | 44 | 1008.8 |
| 20260508153633 | 60 | 270 | 1.0 | 6.0 | 0.00 | 0.00 | 0.00 | 43 | 1008.8 |
| 20260508153133 | 59 | 203 | 2.0 | 6.0 | 0.00 | 0.00 | 0.00 | 44 | 1008.8 |
| 20260508152641 | 58 | 270 | 3.0 | 5.0 | 0.00 | 0.00 | 0.00 | 45 | 1008.8 |
| 20260508152132 | 59 | 248 | 2.0 | 5.0 | 0.00 | 0.00 | 0.00 | 43 | 1009.1 |
| 20260508151635 | 59 | 203 | 4.0 | 5.0 | 0.00 | 0.00 | 0.00 | 45 | 1009.1 |
| 20260508151132 | 57 | 225 | 2.0 | 5.0 | 0.00 | 0.00 | 0.00 | 46 | 1009.1 |
| 20260508150636 | 59 | 68 | 2.0 | 5.0 | 0.00 | 0.00 | 0.00 | 43 | 1009.1 |
| 20260508150141 | 59 | 180 | 2.0 | 5.0 | 0.00 | 0.00 | 0.00 | 43 | 1009.5 |
| 20260508145634 | 57 | 270 | 3.0 | 5.0 | 0.00 | 0.00 | 0.00 | 45 | 1009.5 |
| 20260508145136 | 58 | 180 | 2.0 | 5.0 | 0.00 | 0.00 | 0.00 | 49 | 1009.5 |
| 20260508144635 | 57 | 68 | 1.0 | 5.0 | 0.00 | 0.00 | 0.00 | 49 | 1009.5 |
| 20260508144136 | 57 | 45 | 2.0 | 5.0 | 0.00 | 0.00 | 0.00 | 51 | 1009.5 |
| 20260508143633 | 57 | 135 | 0.0 | 5.0 | 0.00 | 0.00 | 0.00 | 52 | 1009.5 |
| 20260508143134 | 56 | 225 | 2.0 | 5.0 | 0.00 | 0.00 | 0.00 | 51 | 1009.5 |
| 20260508142157 | 56 | 90 | 2.0 | 4.0 | 0.00 | 0.00 | 0.00 | 53 | 1009.5 |
| 20260508141633 | 57 | 45 | 4.0 | 4.0 | 0.00 | 0.00 | 0.00 | 55 | 1009.5 |
| 20260508141136 | 55 | 113 | 1.0 | 4.0 | 0.00 | 0.00 | 0.00 | 56 | 1009.8 |
| 20260508140633 | 56 | 225 | 0.0 | 4.0 | 0.00 | 0.00 | 0.00 | 59 | 1009.8 |
| 20260508140139 | 55 | 68 | 2.0 | 4.0 | 0.00 | 0.00 | 0.00 | 59 | 1009.8 |
| 20260508135634 | 55 | 158 | 1.0 | 4.0 | 0.00 | 0.00 | 0.00 | 62 | 1009.8 |
| 20260508135132 | 55 | 23 | 1.0 | 4.0 | 0.00 | 0.00 | 0.00 | 64 | 1009.8 |
| 20260508134635 | 56 | 90 | 0.0 | 4.0 | 0.00 | 0.00 | 0.00 | 63 | 1009.8 |
| 20260508134136 | 53 | 225 | 2.0 | 4.0 | 0.00 | 0.00 | 0.00 | 70 | 1009.8 |
| 20260508133632 | 55 | 225 | 0.0 | 4.0 | 0.00 | 0.00 | 0.00 | 67 | 1010.2 |
| 20260508133134 | 53 | 0 | 2.0 | 4.0 | 0.00 | 0.00 | 0.00 | 70 | 1010.2 |
| 20260508132634 | 55 | 45 | 1.0 | 4.0 | 0.00 | 0.00 | 0.00 | 70 | 1010.2 |
| 20260508132136 | 53 | 248 | 0.0 | 4.0 | 0.00 | 0.00 | 0.00 | 73 | 1010.2 |
| 20260508131633 | 52 | 225 | 2.0 | 4.0 | 0.00 | 0.00 | 0.00 | 73 | 1010.2 |
| 20260508131133 | 54 | 270 | 0.0 | 4.0 | 0.00 | 0.00 | 0.00 | 72 | 1010.2 |
| 20260508130633 | 53 | 270 | 0.0 | 4.0 | 0.00 | 0.00 | 0.00 | 76 | 1010.2 |
| 20260508130136 | 53 | 113 | 0.0 | 4.0 | 0.00 | 0.00 | 0.00 | 76 | 1010.2 |
| 20260508125634 | 50 | 225 | 0.0 | 4.0 | 0.00 | 0.00 | 0.00 | 82 | 1010.2 |
| 20260508125133 | 51 | 248 | 2.0 | 4.0 | 0.00 | 0.00 | 0.00 | 80 | 1010.2 |
| 20260508124632 | 51 | 68 | 0.0 | 4.0 | 0.00 | 0.00 | 0.00 | 81 | 1010.2 |
| 20260508124134 | 50 | 248 | 2.0 | 4.0 | 0.00 | 0.00 | 0.00 | 83 | 1010.2 |
| 20260508123632 | 49 | 113 | 0.0 | 4.0 | 0.00 | 0.00 | 0.00 | 86 | 1010.2 |
| 20260508123134 | 48 | 203 | 0.0 | 4.0 | 0.00 | 0.00 | 0.00 | 89 | 1010.2 |
| 20260508122632 | 47 | 248 | 2.0 | 2.0 | 0.00 | 0.00 | 0.00 | 90 | 1010.2 |
| 20260508122132 | 46 | 248 | 0.0 | 2.0 | 0.00 | 0.00 | 0.00 | 92 | 1010.2 |
| 20260508121633 | 45 | 270 | 0.0 | 2.0 | 0.00 | 0.00 | 0.00 | 94 | 1010.2 |
| 20260508121135 | 44 | 225 | 0.0 | 2.0 | 0.00 | 0.00 | 0.00 | 96 | 1009.8 |
| 20260508120632 | 43 | 270 | 2.0 | 2.0 | 0.00 | 0.00 | 0.00 | 97 | 1009.8 |
| 20260508120132 | 42 | 225 | 0.0 | 2.0 | 0.00 | 0.00 | 0.00 | 99 | 1009.5 |
| 20260508115632 | 41 | 45 | 0.0 | 2.0 | 0.00 | 0.00 | 0.00 | 99 | 1009.5 |
| 20260508115134 | 40 | 293 | 2.0 | 2.0 | 0.00 | 0.00 | 0.00 | 99 | 1009.5 |
| 20260508114633 | 40 | 270 | 0.0 | 0.0 | 0.00 | 0.00 | 0.00 | 99 | 1009.5 |
| 20260508114132 | 39 | 270 | 0.0 | 0.0 | 0.00 | 0.00 | 0.00 | 99 | 1009.5 |
| 20260508113634 | 39 | 225 | 0.0 | 0.0 | 0.00 | 0.00 | 0.00 | 99 | 1009.1 |
| 20260508113132 | 38 | 270 | 0.0 | 0.0 | 0.00 | 0.00 | 0.00 | 99 | 1009.1 |
| 20260508112632 | 38 | 293 | 0.0 | 0.0 | 0.00 | 0.00 | 0.00 | 99 | 1009.1 |
| 20260508112132 | 38 | 248 | 0.0 | 0.0 | 0.00 | 0.00 | 0.00 | 99 | 1009.1 |
| 20260508111634 | 38 | 225 | 0.0 | 0.0 | 0.00 | 0.00 | 0.00 | 99 | 1009.1 |
| 20260508111132 | 37 | 270 | 0.0 | 0.0 | 0.00 | 0.00 | 0.00 | 98 | 1009.1 |
| 20260508110633 | 37 | 248 | 0.0 | 0.0 | 0.00 | 0.00 | 0.00 | 98 | 1009.1 |
| 20260508110136 | 37 | 113 | 0.0 | 2.0 | 0.00 | 0.00 | 0.00 | 99 | 1009.1 |
| 20260508105634 | 37 | 113 | 0.0 | 2.0 | 0.00 | 0.00 | 0.00 | 99 | 1009.1 |
| 20260508104632 | 38 | 248 | 0.0 | 2.0 | 0.00 | 0.00 | 0.00 | 99 | 1009.1 |
| 20260508104134 | 38 | 248 | 0.0 | 2.0 | 0.00 | 0.00 | 0.00 | 99 | 1009.1 |
| 20260508103633 | 38 | 248 | 0.0 | 2.0 | 0.00 | 0.00 | 0.00 | 99 | 1008.8 |
| 20260508103134 | 38 | 248 | 0.0 | 2.0 | 0.00 | 0.00 | 0.00 | 99 | 1008.8 |
| 20260508102633 | 38 | 248 | 0.0 | 2.0 | 0.00 | 0.00 | 0.00 | 99 | 1008.8 |
| 20260508102132 | 38 | 248 | 0.0 | 2.0 | 0.00 | 0.00 | 0.00 | 99 | 1008.8 |
| 20260508101636 | 38 | 203 | 0.0 | 2.0 | 0.00 | 0.00 | 0.00 | 99 | 1008.8 |
| 20260508101135 | 39 | 248 | 0.0 | 2.0 | 0.00 | 0.00 | 0.00 | 99 | 1009.1 |
| 20260508100632 | 39 | 225 | 0.0 | 2.0 | 0.00 | 0.00 | 0.00 | 99 | 1009.1 |
| 20260508100132 | 39 | 225 | 0.0 | 2.0 | 0.00 | 0.00 | 0.00 | 99 | 1009.1 |
| 20260508095633 | 39 | 225 | 0.0 | 2.0 | 0.00 | 0.00 | 0.00 | 99 | 1009.1 |
| 20260508095132 | 39 | 315 | 0.0 | 2.0 | 0.00 | 0.00 | 0.00 | 99 | 1009.1 |
| 20260508094632 | 39 | 203 | 1.0 | 2.0 | 0.00 | 0.00 | 0.00 | 99 | 1009.1 |
| 20260508094022 | 39 | 203 | 2.0 | 2.0 | 0.00 | 0.00 | 0.00 | 99 | 1009.1 |
| 20260508093133 | 39 | 180 | 0.0 | 2.0 | 0.00 | 0.00 | 0.00 | 99 | 1009.1 |
| 20260508092635 | 39 | 203 | 2.0 | 2.0 | 0.00 | 0.00 | 0.00 | 99 | 1009.1 |
| 20260508092134 | 38 | 270 | 2.0 | 2.0 | 0.00 | 0.00 | 0.00 | 98 | 1009.1 |
| 20260508091632 | 38 | 203 | 0.0 | 0.0 | 0.00 | 0.00 | 0.00 | 98 | 1009.1 |
| 20260508091136 | 38 | 248 | 0.0 | 0.0 | 0.00 | 0.00 | 0.00 | 97 | 1009.1 |
| 20260508090634 | 38 | 270 | 0.0 | 0.0 | 0.00 | 0.00 | 0.00 | 97 | 1009.1 |
| 20260508090141 | 38 | 68 | 0.0 | 0.0 | 0.00 | 0.00 | 0.00 | 97 | 1009.1 |
| 20260508085636 | 39 | 248 | 0.0 | 0.0 | 0.00 | 0.00 | 0.00 | 98 | 1009.1 |
| 20260508085133 | 39 | 248 | 0.0 | 0.0 | 0.00 | 0.00 | 0.00 | 98 | 1009.1 |
| 20260508084634 | 39 | 248 | 0.0 | 0.0 | 0.00 | 0.00 | 0.00 | 98 | 1009.1 |
| 20260508084134 | 39 | 225 | 0.0 | 0.0 | 0.00 | 0.00 | 0.00 | 98 | 1009.1 |
| 20260508083634 | 39 | 248 | 0.0 | 0.0 | 0.00 | 0.00 | 0.00 | 98 | 1009.1 |
| 20260508083135 | 39 | 180 | 0.0 | 0.0 | 0.00 | 0.00 | 0.00 | 97 | 1009.1 |
| 20260508082634 | 39 | 248 | 0.0 | 0.0 | 0.00 | 0.00 | 0.00 | 97 | 1009.1 |
| 20260508082133 | 39 | 225 | 0.0 | 0.0 | 0.00 | 0.00 | 0.00 | 97 | 1009.1 |
| 20260508081633 | 39 | 248 | 0.0 | 1.0 | 0.00 | 0.00 | 0.00 | 96 | 1009.1 |
| 20260508081133 | 40 | 225 | 0.0 | 1.0 | 0.00 | 0.00 | 0.00 | 96 | 1009.1 |
| 20260508080635 | 40 | 248 | 0.0 | 1.0 | 0.00 | 0.00 | 0.00 | 97 | 1009.1 |
| 20260508080133 | 40 | 248 | 0.0 | 2.0 | 0.00 | 0.00 | 0.00 | 96 | 1009.1 |
| 20260508075633 | 40 | 68 | 0.0 | 2.0 | 0.00 | 0.00 | 0.00 | 96 | 1009.1 |
| 20260508075133 | 40 | 270 | 0.0 | 2.0 | 0.00 | 0.00 | 0.00 | 96 | 1009.1 |
| 20260508074633 | 41 | 248 | 0.0 | 2.0 | 0.00 | 0.00 | 0.00 | 96 | 1009.1 |
| 20260508074132 | 41 | 225 | 0.0 | 2.0 | 0.00 | 0.00 | 0.00 | 96 | 1009.1 |
| 20260508073634 | 41 | 248 | 0.0 | 2.0 | 0.00 | 0.00 | 0.00 | 96 | 1009.1 |
| 20260508073132 | 40 | 225 | 0.0 | 2.0 | 0.00 | 0.00 | 0.00 | 96 | 1009.1 |
| 20260508072635 | 40 | 315 | 0.0 | 2.0 | 0.00 | 0.00 | 0.00 | 96 | 1009.1 |
| 20260508072134 | 40 | 203 | 0.0 | 2.0 | 0.00 | 0.00 | 0.00 | 96 | 1009.5 |
| 20260508071632 | 40 | 248 | 0.0 | 2.0 | 0.00 | 0.00 | 0.00 | 96 | 1009.5 |
| 20260508071133 | 40 | 225 | 0.0 | 2.0 | 0.00 | 0.00 | 0.00 | 96 | 1009.8 |
| 20260508070632 | 40 | 248 | 0.0 | 2.0 | 0.00 | 0.00 | 0.00 | 96 | 1009.8 |
| 20260508070134 | 40 | 248 | 0.0 | 2.0 | 0.00 | 0.00 | 0.00 | 96 | 1009.8 |
| 20260508065633 | 40 | 225 | 0.0 | 2.0 | 0.00 | 0.00 | 0.00 | 96 | 1009.8 |
| 20260508065132 | 40 | 180 | 0.0 | 2.0 | 0.00 | 0.00 | 0.00 | 96 | 1009.8 |
| 20260508064633 | 40 | 225 | 0.0 | 2.0 | 0.00 | 0.00 | 0.00 | 95 | 1010.2 |
| 20260508064135 | 40 | 225 | 0.0 | 2.0 | 0.00 | 0.00 | 0.00 | 95 | 1010.2 |
| 20260508063634 | 40 | 270 | 0.0 | 2.0 | 0.00 | 0.00 | 0.00 | 95 | 1010.2 |
| 20260508063135 | 41 | 248 | 0.0 | 2.0 | 0.00 | 0.00 | 0.00 | 94 | 1010.2 |
| 20260508062632 | 41 | 225 | 0.0 | 2.0 | 0.00 | 0.00 | 0.00 | 94 | 1010.2 |
| 20260508062134 | 41 | 248 | 0.0 | 2.0 | 0.00 | 0.00 | 0.00 | 94 | 1010.2 |
| 20260508061632 | 40 | 225 | 0.0 | 2.0 | 0.00 | 0.00 | 0.00 | 94 | 1010.2 |
| 20260508061133 | 40 | 180 | 0.0 | 2.0 | 0.00 | 0.00 | 0.00 | 94 | 1010.2 |
| 20260508060634 | 40 | 225 | 0.0 | 2.0 | 0.00 | 0.00 | 0.00 | 94 | 1010.2 |
| 20260508060133 | 40 | 225 | 0.0 | 2.0 | 0.00 | 0.00 | 0.00 | 94 | 1010.2 |
| 20260508055635 | 40 | 225 | 0.0 | 2.0 | 0.00 | 0.00 | 0.00 | 94 | 1010.2 |
| 20260508055134 | 40 | 225 | 0.0 | 2.0 | 0.00 | 0.00 | 0.00 | 94 | 1010.2 |
| 20260508054632 | 40 | 248 | 0.0 | 2.0 | 0.00 | 0.00 | 0.00 | 94 | 1010.2 |
| 20260508054135 | 41 | 225 | 0.0 | 0.0 | 0.00 | 0.00 | 0.00 | 94 | 1010.2 |
| 20260508053632 | 41 | 248 | 0.0 | 0.0 | 0.00 | 0.00 | 0.00 | 94 | 1010.2 |
| 20260508053134 | 41 | 225 | 0.0 | 0.0 | 0.00 | 0.00 | 0.00 | 94 | 1010.2 |
| 20260508052633 | 41 | 225 | 0.0 | 0.0 | 0.00 | 0.00 | 0.00 | 94 | 1010.2 |
| 20260508052134 | 41 | 270 | 0.0 | 0.0 | 0.00 | 0.00 | 0.00 | 92 | 1010.2 |
| 20260508051634 | 41 | 248 | 0.0 | 0.0 | 0.00 | 0.00 | 0.00 | 92 | 1010.2 |
| 20260508051132 | 41 | 270 | 0.0 | 0.0 | 0.00 | 0.00 | 0.00 | 93 | 1009.8 |
| 20260508050635 | 41 | 225 | 0.0 | 0.0 | 0.00 | 0.00 | 0.00 | 92 | 1009.8 |
| 20260508050132 | 41 | 270 | 0.0 | 0.0 | 0.00 | 0.00 | 0.00 | 91 | 1009.8 |
| 20260508045633 | 42 | 225 | 0.0 | 0.0 | 0.00 | 0.00 | 0.00 | 90 | 1009.8 |
| 20260508045132 | 42 | 203 | 0.0 | 0.0 | 0.00 | 0.00 | 0.00 | 91 | 1009.8 |
| 20260508044632 | 42 | 248 | 0.0 | 0.0 | 0.00 | 0.00 | 0.00 | 89 | 1009.8 |
| 20260508044133 | 42 | 248 | 0.0 | 0.0 | 0.00 | 0.00 | 0.00 | 90 | 1009.8 |
| 20260508043632 | 42 | 203 | 0.0 | 0.0 | 0.00 | 0.00 | 0.00 | 90 | 1009.5 |
| 20260508043132 | 42 | 248 | 0.0 | 0.0 | 0.00 | 0.00 | 0.00 | 89 | 1009.5 |
| 20260508042632 | 43 | 225 | 0.0 | 0.0 | 0.00 | 0.00 | 0.00 | 89 | 1009.5 |
| 20260508042132 | 43 | 248 | 0.0 | 0.0 | 0.00 | 0.00 | 0.00 | 89 | 1009.5 |
| 20260508041634 | 43 | 225 | 0.0 | 0.0 | 0.00 | 0.00 | 0.00 | 88 | 1009.5 |
| 20260508041133 | 43 | 225 | 0.0 | 0.0 | 0.00 | 0.00 | 0.00 | 88 | 1009.5 |
| 20260508040632 | 43 | 248 | 0.0 | 0.0 | 0.00 | 0.00 | 0.00 | 88 | 1009.5 |
| 20260508040132 | 43 | 248 | 0.0 | 0.0 | 0.00 | 0.00 | 0.00 | 89 | 1009.1 |
| 20260508035633 | 43 | 225 | 0.0 | 0.0 | 0.00 | 0.00 | 0.00 | 88 | 1009.1 |
| 20260508035133 | 43 | 248 | 0.0 | 0.0 | 0.00 | 0.00 | 0.00 | 88 | 1009.1 |
| 20260508034635 | 43 | 248 | 0.0 | 0.0 | 0.00 | 0.00 | 0.00 | 88 | 1009.1 |
| 20260508034132 | 43 | 225 | 0.0 | 0.0 | 0.00 | 0.00 | 0.00 | 87 | 1009.1 |
| 20260508033635 | 43 | 225 | 0.0 | 0.0 | 0.00 | 0.00 | 0.00 | 87 | 1009.1 |
| 20260508033132 | 43 | 225 | 0.0 | 0.0 | 0.00 | 0.00 | 0.00 | 87 | 1009.1 |
| 20260508032634 | 43 | 225 | 0.0 | 0.0 | 0.00 | 0.00 | 0.00 | 85 | 1009.1 |